Location: Unspecified
(0.0000°N, 0.0000°E)
Time: 07:50:30
(UTC+02:00)

ARIANE 5 R/B - Visible Passes

Search period start: 04 September 2015 00:00
Search period end: 14 September 2015 00:00
Orbit: 564 x 35655 km, 7.1° (Epoch: 02 September)

Date Brightness Start Highest point End Pass type
(mag) Time Alt. Az. Time Alt. Az. Time Alt. Az.
04 Sep 5.5 06:32:47 26° WNW 06:37:29 68° NNE 16:22:26 10° E visible
06 Sep 7.2 00:24:56 10° W 00:32:14 21° W 00:32:14 21° W visible
06 Sep 6.0 11:48:20 10° W 21:36:43 87° S 21:43:33 38° E visible
08 Sep 5.0 05:53:36 49° NW 05:55:32 62° NNE 15:36:47 10° E visible
09 Sep 6.6 14:22:58 10° W 23:53:03 37° W 23:53:03 37° W visible
10 Sep 6.5 11:05:41 10° W 20:53:00 86° S 21:04:22 20° E visible
12 Sep 5.2 05:14:24 55° NNE 05:14:24 55° NNE 05:37:51 10° E visible
12 Sep 5.2 05:14:25 55° NNE 05:14:25 55° NNE 05:37:50 10° E visible
13 Sep 5.9 13:35:04 10° W 23:13:50 59° WNW 23:13:50 59° WNW visible
